| time (UTC) | temp C | wind direction | speed KPH | gust KPH | rain 1hr cm | rain 24hr cm | rain mn cm | humidity % | barometer mb |
| 20260508132545 | 7 | 301 | 16.1 | 17.7 | 0.00 | 0.05 | 0.05 | 68 | 1025.4 |
| 20260508132041 | 7 | 291 | 14.5 | 17.7 | 0.00 | 0.05 | 0.05 | 70 | 1025.4 |
| 20260508131536 | 6 | 301 | 16.1 | 17.7 | 0.00 | 0.05 | 0.05 | 71 | 1025.3 |
| 20260508131033 | 6 | 331 | 11.3 | 19.3 | 0.00 | 0.05 | 0.05 | 69 | 1025.3 |
| 20260508130531 | 7 | 327 | 11.3 | 19.3 | 0.00 | 0.05 | 0.05 | 68 | 1025.4 |
| 20260508130027 | 7 | 298 | 6.4 | 17.7 | 0.00 | 0.05 | 0.05 | 69 | 1025.2 |
| 20260508125522 | 7 | 285 | 9.7 | 16.1 | 0.00 | 0.05 | 0.05 | 68 | 1025.3 |
| 20260508125020 | 7 | 272 | 14.5 | 17.7 | 0.00 | 0.05 | 0.05 | 70 | 1025.3 |
| 20260508124518 | 7 | 295 | 12.9 | 19.3 | 0.00 | 0.05 | 0.05 | 67 | 1025.3 |
| 20260508124015 | 7 | 282 | 14.5 | 19.3 | 0.00 | 0.05 | 0.05 | 66 | 1025.4 |
| 20260508123514 | 7 | 310 | 11.3 | 17.7 | 0.00 | 0.05 | 0.05 | 63 | 1025.3 |
| 20260508123010 | 8 | 261 | 12.9 | 19.3 | 0.00 | 0.05 | 0.05 | 60 | 1025.2 |
| 20260508122507 | 8 | 234 | 3.2 | 6.4 | 0.00 | 0.05 | 0.05 | 55 | 1025.4 |
| 20260508122004 | 9 | 169 | 14.5 | 17.7 | 0.00 | 0.05 | 0.05 | 50 | 1025.2 |
| 20260508121502 | 9 | 207 | 3.2 | 14.5 | 0.00 | 0.05 | 0.05 | 51 | 1025.2 |
| 20260508120959 | 9 | 156 | 12.9 | 14.5 | 0.00 | 0.05 | 0.05 | 49 | 1025.0 |
| 20260508120457 | 8 | 144 | 6.4 | 14.5 | 0.00 | 0.05 | 0.05 | 54 | 1025.3 |
| 20260508115955 | 8 | 73 | 3.2 | 11.3 | 0.00 | 0.05 | 0.05 | 53 | 1025.4 |
| 20260508115452 | 8 | 156 | 9.7 | 17.7 | 0.00 | 0.05 | 0.05 | 56 | 1025.0 |
| 20260508114948 | 8 | 173 | 17.7 | 20.9 | 0.00 | 0.05 | 0.05 | 58 | 1025.2 |
| 20260508114446 | 7 | 143 | 6.4 | 20.9 | 0.00 | 0.05 | 0.05 | 53 | 1025.2 |
| 20260508113942 | 8 | 138 | 4.8 | 17.7 | 0.00 | 0.05 | 0.05 | 56 | 1025.1 |
| 20260508113440 | 7 | 199 | 3.2 | 9.7 | 0.00 | 0.05 | 0.05 | 61 | 1024.9 |
| 20260508112937 | 7 | 81 | 8.0 | 11.3 | 0.00 | 0.05 | 0.05 | 61 | 1025.3 |
| 20260508112433 | 7 | 77 | 9.7 | 12.9 | 0.00 | 0.05 | 0.05 | 66 | 1025.3 |
| 20260508111930 | 6 | 102 | 6.4 | 14.5 | 0.00 | 0.05 | 0.05 | 67 | 1025.2 |
| 20260508111427 | 5 | 132 | 9.7 | 20.9 | 0.00 | 0.05 | 0.05 | 72 | 1025.4 |
| 20260508110924 | 5 | 161 | 3.2 | 12.9 | 0.00 | 0.05 | 0.05 | 75 | 1025.4 |
| 20260508110422 | 5 | 97 | 9.7 | 16.1 | 0.00 | 0.05 | 0.05 | 74 | 1025.4 |
| 20260508105921 | 5 | 163 | 8.0 | 14.5 | 0.00 | 0.05 | 0.05 | 74 | 1025.4 |
| 20260508105418 | 6 | 155 | 11.3 | 14.5 | 0.00 | 0.05 | 0.05 | 71 | 1025.1 |
| 20260508104915 | 6 | 88 | 8.0 | 8.0 | 0.00 | 0.05 | 0.05 | 66 | 1025.1 |
| 20260508104413 | 5 | 308 | 3.2 | 6.4 | 0.00 | 0.05 | 0.05 | 68 | 1024.9 |
| 20260508103909 | 5 | 9 | 4.8 | 8.0 | 0.00 | 0.05 | 0.05 | 68 | 1025.0 |
| 20260508103407 | 5 | 26 | 4.8 | 8.0 | 0.00 | 0.05 | 0.05 | 69 | 1025.0 |
| 20260508102904 | 5 | 355 | 6.4 | 12.9 | 0.00 | 0.05 | 0.05 | 72 | 1025.0 |
| 20260508102402 | 5 | 302 | 11.3 | 19.3 | 0.00 | 0.05 | 0.05 | 72 | 1024.8 |
| 20260508101859 | 5 | 301 | 9.7 | 20.9 | 0.00 | 0.05 | 0.05 | 73 | 1024.7 |
| 20260508101356 | 6 | 300 | 17.7 | 29.0 | 0.00 | 0.05 | 0.05 | 71 | 1024.7 |
| 20260508100853 | 7 | 309 | 4.8 | 8.0 | 0.00 | 0.05 | 0.05 | 59 | 1024.5 |
| 20260508100352 | 7 | 288 | 8.0 | 12.9 | 0.00 | 0.05 | 0.05 | 62 | 1024.4 |
| 20260508095847 | 7 | 312 | 6.4 | 8.0 | 0.00 | 0.05 | 0.05 | 60 | 1024.6 |
| 20260508095346 | 7 | 318 | 4.8 | 6.4 | 0.00 | 0.05 | 0.05 | 62 | 1024.5 |
| 20260508094842 | 7 | 157 | 3.2 | 8.0 | 0.00 | 0.05 | 0.05 | 60 | 1024.6 |
| 20260508094339 | 6 | 78 | 3.2 | 6.4 | 0.00 | 0.05 | 0.05 | 66 | 1024.5 |
| 20260508093836 | 6 | 78 | 4.8 | 6.4 | 0.00 | 0.05 | 0.05 | 65 | 1024.6 |
| 20260508093333 | 6 | 78 | 3.2 | 6.4 | 0.00 | 0.05 | 0.05 | 65 | 1024.4 |
| 20260508092831 | 5 | 348 | 4.8 | 8.0 | 0.00 | 0.05 | 0.05 | 67 | 1024.5 |
| 20260508092329 | 5 | 359 | 4.8 | 8.0 | 0.00 | 0.05 | 0.05 | 69 | 1024.5 |
| 20260508091827 | 6 | 327 | 1.6 | 6.4 | 0.00 | 0.05 | 0.05 | 72 | 1024.4 |
| 20260508091323 | 6 | 328 | 6.4 | 6.4 | 0.00 | 0.05 | 0.05 | 71 | 1024.3 |
| 20260508090821 | 5 | 359 | 4.8 | 6.4 | 0.00 | 0.05 | 0.05 | 72 | 1024.4 |
| 20260508090319 | 5 | 339 | 3.2 | 9.7 | 0.00 | 0.05 | 0.05 | 73 | 1024.5 |
| 20260508085814 | 5 | 12 | 6.4 | 9.7 | 0.00 | 0.05 | 0.05 | 70 | 1024.5 |
| 20260508085311 | 6 | 308 | 8.0 | 8.0 | 0.00 | 0.05 | 0.05 | 71 | 1024.5 |
| 20260508084808 | 6 | 346 | 1.6 | 6.4 | 0.00 | 0.05 | 0.05 | 69 | 1024.2 |
| 20260508084305 | 6 | 77 | 1.6 | 3.2 | 0.00 | 0.05 | 0.05 | 68 | 1024.4 |
| 20260508083802 | 6 | 67 | 0.0 | 6.4 | 0.00 | 0.05 | 0.05 | 71 | 1024.4 |
| 20260508083300 | 5 | 38 | 3.2 | 4.8 | 0.00 | 0.05 | 0.05 | 73 | 1024.4 |
| 20260508082759 | 5 | 340 | 3.2 | 6.4 | 0.00 | 0.05 | 0.05 | 76 | 1024.2 |
| 20260508082257 | 5 | 309 | 6.4 | 6.4 | 0.00 | 0.05 | 0.05 | 76 | 1024.1 |
| 20260508081754 | 5 | 28 | 9.7 | 9.7 | 0.00 | 0.05 | 0.05 | 74 | 1024.0 |
| 20260508081251 | 5 | 93 | 3.2 | 6.4 | 0.05 | 0.05 | 0.05 | 75 | 1024.1 |
| 20260508080748 | 5 | 57 | 8.0 | 9.7 | 0.05 | 0.05 | 0.05 | 75 | 1024.2 |
| 20260508080246 | 4 | 78 | 6.4 | 11.3 | 0.00 | 0.03 | 0.03 | 78 | 1024.0 |
| 20260508075742 | 4 | 59 | 6.4 | 9.7 | 0.05 | 0.03 | 0.03 | 78 | 1024.1 |
| 20260508075239 | 4 | 109 | 4.8 | 17.7 | 0.05 | 0.03 | 0.03 | 78 | 1024.3 |
| 20260508074737 | 4 | 159 | 6.4 | 9.7 | 0.00 | 0.03 | 0.03 | 77 | 1024.0 |
| 20260508074234 | 4 | 141 | 12.9 | 17.7 | 0.00 | 0.03 | 0.03 | 78 | 1023.9 |
| 20260508073731 | 4 | 135 | 9.7 | 11.3 | 0.00 | 0.03 | 0.03 | 79 | 1023.9 |
| 20260508073229 | 4 | 129 | 8.0 | 12.9 | 0.00 | 0.03 | 0.03 | 79 | 1023.9 |
| 20260508072725 | 4 | 164 | 11.3 | 17.7 | 0.00 | 0.03 | 0.03 | 76 | 1023.9 |
| 20260508072222 | 5 | 148 | 6.4 | 17.7 | 0.00 | 0.03 | 0.03 | 74 | 1024.0 |
| 20260508071719 | 5 | 164 | 17.7 | 20.9 | 0.00 | 0.03 | 0.03 | 71 | 1023.8 |
| 20260508071217 | 5 | 136 | 8.0 | 14.5 | 0.00 | 0.03 | 0.03 | 66 | 1023.5 |
| 20260508070714 | 6 | 155 | 12.9 | 16.1 | 0.00 | 0.03 | 0.03 | 67 | 1023.2 |
| 20260508070213 | 6 | 136 | 9.7 | 17.7 | 0.00 | 0.03 | 0.03 | 62 | 1023.2 |
| 20260508065710 | 6 | 138 | 3.2 | 12.9 | 0.00 | 0.03 | 0.03 | 62 | 1023.2 |
| 20260508065208 | 6 | 222 | 0.0 | 6.4 | 0.00 | 0.03 | 0.03 | 66 | 1023.1 |
| 20260508064705 | 6 | 265 | 3.2 | 4.8 | 0.00 | 0.03 | 0.03 | 69 | 1023.1 |
| 20260508064203 | 6 | 155 | 3.2 | 4.8 | 0.00 | 0.03 | 0.03 | 64 | 1023.1 |
| 20260508063700 | 6 | 33 | 3.2 | 4.8 | 0.00 | 0.03 | 0.03 | 65 | 1023.1 |
| 20260508063158 | 5 | 103 | 3.2 | 4.8 | 0.00 | 0.03 | 0.03 | 67 | 1023.1 |
| 20260508062655 | 5 | 91 | 3.2 | 8.0 | 0.00 | 0.03 | 0.03 | 68 | 1023.0 |
| 20260508062152 | 5 | 105 | 3.2 | 9.7 | 0.00 | 0.03 | 0.03 | 68 | 1023.1 |
| 20260508061649 | 5 | 159 | 6.4 | 9.7 | 0.00 | 0.03 | 0.03 | 69 | 1022.8 |
| 20260508061147 | 5 | 131 | 6.4 | 8.0 | 0.00 | 0.03 | 0.03 | 71 | 1023.0 |
| 20260508060643 | 5 | 147 | 6.4 | 11.3 | 0.00 | 0.03 | 0.03 | 71 | 1022.8 |
| 20260508060141 | 4 | 149 | 12.9 | 14.5 | 0.00 | 0.03 | 0.03 | 73 | 1022.8 |
| 20260508055636 | 4 | 71 | 3.2 | 6.4 | 0.00 | 0.03 | 0.03 | 77 | 1023.0 |
| 20260508055133 | 4 | 75 | 6.4 | 6.4 | 0.00 | 0.03 | 0.03 | 77 | 1022.7 |
| 20260508054629 | 4 | 143 | 6.4 | 8.0 | 0.00 | 0.03 | 0.03 | 77 | 1022.8 |
| 20260508054127 | 4 | 56 | 3.2 | 8.0 | 0.00 | 0.03 | 0.03 | 78 | 1022.7 |
| 20260508053624 | 3 | 107 | 9.7 | 11.3 | 0.00 | 0.03 | 0.03 | 77 | 1022.7 |
| 20260508053122 | 3 | 104 | 6.4 | 12.9 | 0.00 | 0.03 | 0.03 | 80 | 1022.6 |
| 20260508052619 | 3 | 125 | 4.8 | 6.4 | 0.00 | 0.03 | 0.03 | 83 | 1022.7 |
| 20260508052116 | 3 | 94 | 4.8 | 9.7 | 0.00 | 0.03 | 0.03 | 84 | 1022.6 |
| 20260508051612 | 3 | 70 | 9.7 | 12.9 | 0.00 | 0.03 | 0.03 | 86 | 1022.6 |
| 20260508051107 | 3 | 66 | 8.0 | 11.3 | 0.00 | 0.03 | 0.03 | 88 | 1022.6 |
| 20260508050604 | 2 | 122 | 6.4 | 9.7 | 0.00 | 0.03 | 0.03 | 88 | 1022.6 |
| 20260508045557 | 3 | 78 | 6.4 | 6.4 | 0.00 | 0.03 | 0.03 | 87 | 1022.5 |
| 20260508045055 | 3 | 73 | 4.8 | 8.0 | 0.00 | 0.03 | 0.03 | 86 | 1022.4 |
| 20260508044552 | 3 | 71 | 8.0 | 8.0 | 0.00 | 0.03 | 0.03 | 88 | 1022.2 |
| 20260508044048 | 2 | 84 | 6.4 | 6.4 | 0.00 | 0.03 | 0.03 | 92 | 1022.4 |
| 20260508043545 | 2 | 83 | 4.8 | 8.0 | 0.00 | 0.03 | 0.03 | 91 | 1022.2 |
| 20260508043043 | 2 | 73 | 9.7 | 9.7 | 0.00 | 0.03 | 0.03 | 92 | 1022.2 |
| 20260508042539 | 2 | 57 | 4.8 | 6.4 | 0.00 | 0.03 | 0.03 | 93 | 1022.3 |
| 20260508042037 | 2 | 84 | 3.2 | 4.8 | 0.00 | 0.03 | 0.03 | 93 | 1022.3 |
| 20260508041533 | 1 | 72 | 4.8 | 6.4 | 0.00 | 0.03 | 0.03 | 93 | 1022.2 |
| 20260508041029 | 1 | 77 | 6.4 | 6.4 | 0.00 | 0.03 | 0.03 | 93 | 1022.3 |
| 20260508040526 | 1 | 72 | 6.4 | 6.4 | 0.00 | 0.03 | 0.03 | 93 | 1022.3 |
| 20260508040024 | 1 | 60 | 6.4 | 6.4 | 0.00 | 0.03 | 0.03 | 93 | 1022.2 |
| 20260508035521 | 1 | 71 | 4.8 | 6.4 | 0.00 | 0.03 | 0.03 | 93 | 1022.3 |
| 20260508035018 | 1 | 40 | 6.4 | 6.4 | 0.00 | 0.03 | 0.03 | 93 | 1022.1 |
| 20260508034515 | 1 | 71 | 6.4 | 6.4 | 0.00 | 0.03 | 0.03 | 93 | 1022.2 |
| 20260508034012 | 1 | 70 | 6.4 | 8.0 | 0.00 | 0.03 | 0.03 | 93 | 1022.0 |
| 20260508033510 | 1 | 78 | 6.4 | 8.0 | 0.00 | 0.03 | 0.03 | 93 | 1021.8 |
| 20260508033007 | 1 | 63 | 8.0 | 9.7 | 0.05 | 0.03 | 0.03 | 92 | 1022.0 |
| 20260508032504 | 1 | 54 | 8.0 | 9.7 | 0.05 | 0.03 | 0.03 | 92 | 1022.0 |
| 20260508032001 | 1 | 70 | 6.4 | 8.0 | 0.00 | 0.00 | 0.00 | 93 | 1022.0 |
| 20260508031459 | 1 | 98 | 4.8 | 6.4 | 0.00 | 0.00 | 0.00 | 93 | 1021.9 |
| 20260508030953 | 1 | 119 | 6.4 | 11.3 | 0.00 | 0.00 | 0.00 | 93 | 1021.9 |
| 20260508030451 | 1 | 77 | 9.7 | 9.7 | 0.00 | 0.00 | 0.00 | 93 | 1022.0 |
| 20260508025948 | 1 | 48 | 6.4 | 8.0 | 0.05 | 0.00 | 0.00 | 93 | 1022.0 |
| 20260508025444 | 0 | 41 | 6.4 | 11.3 | 0.00 | 0.00 | 0.00 | 92 | 1021.8 |
| 20260508024942 | 1 | 69 | 8.0 | 9.7 | 0.00 | 0.00 | 0.00 | 92 | 1021.9 |
| 20260508024438 | 1 | 70 | 9.7 | 9.7 | 0.00 | 0.00 | 0.00 | 92 | 1021.9 |
| 20260508023935 | 1 | 46 | 6.4 | 8.0 | 0.00 | 0.00 | 0.00 | 91 | 1021.8 |
| 20260508023432 | 0 | 50 | 8.0 | 9.7 | 0.00 | 0.00 | 0.00 | 91 | 1021.8 |
| 20260508022929 | 0 | 47 | 9.7 | 9.7 | 0.00 | 0.00 | 0.00 | 90 | 1021.8 |
| 20260508022424 | 0 | 52 | 9.7 | 9.7 | 0.00 | 0.00 | 0.00 | 88 | 1022.0 |
| 20260508021921 | 0 | 64 | 8.0 | 9.7 | 0.00 | 0.00 | 0.00 | 87 | 1021.8 |
| 20260508021418 | 0 | 56 | 4.8 | 6.4 | 0.00 | 0.00 | 0.00 | 87 | 1021.9 |
| 20260508020913 | 0 | 55 | 6.4 | 6.4 | 0.00 | 0.00 | 0.00 | 86 | 1021.4 |
| 20260508020412 | 0 | 66 | 9.7 | 11.3 | 0.00 | 0.00 | 0.00 | 85 | 1021.4 |
| 20260508015908 | 0 | 77 | 9.7 | 9.7 | 0.00 | 0.00 | 0.00 | 83 | 1021.3 |
| 20260508015406 | 0 | 75 | 11.3 | 12.9 | 0.00 | 0.00 | 0.00 | 84 | 1021.3 |
| 20260508014902 | 0 | 80 | 9.7 | 12.9 | 0.00 | 0.00 | 0.00 | 86 | 1021.2 |
| 20260508014400 | 0 | 61 | 11.3 | 12.9 | 0.00 | 0.00 | 0.00 | 86 | 1021.5 |
| 20260508013855 | 0 | 65 | 12.9 | 14.5 | 0.00 | 0.00 | 0.00 | 85 | 1021.3 |
| 20260508013351 | 0 | 69 | 8.0 | 9.7 | 0.00 | 0.00 | 0.00 | 85 | 1021.3 |
| 20260508012849 | 0 | 78 | 8.0 | 9.7 | 0.00 | 0.00 | 0.00 | 88 | 1021.1 |
| 20260508012346 | 0 | 88 | 4.8 | 8.0 | 0.00 | 0.00 | 0.00 | 88 | 1021.1 |
| 20260508011844 | 0 | 64 | 6.4 | 6.4 | 0.00 | 0.00 | 0.00 | 87 | 1021.1 |
| 20260508011342 | 0 | 79 | 8.0 | 11.3 | 0.00 | 0.00 | 0.00 | 88 | 1021.1 |
| 20260508010838 | 0 | 79 | 6.4 | 8.0 | 0.00 | 0.00 | 0.00 | 87 | 1021.0 |
| 20260508010336 | 0 | 74 | 6.4 | 14.5 | 0.00 | 0.00 | 0.00 | 84 | 1021.0 |
| 20260508005833 | 0 | 76 | 9.7 | 11.3 | 0.00 | 0.00 | 0.00 | 85 | 1020.9 |
| 20260508005329 | 0 | 83 | 9.7 | 9.7 | 0.00 | 0.00 | 0.00 | 84 | 1020.9 |
| 20260508004825 | 0 | 72 | 11.3 | 14.5 | 0.00 | 0.00 | 0.00 | 81 | 1020.9 |
| 20260508004322 | 0 | 77 | 11.3 | 12.9 | 0.00 | 0.00 | 0.00 | 82 | 1021.0 |
| 20260508003818 | 0 | 72 | 12.9 | 16.1 | 0.00 | 0.00 | 0.00 | 83 | 1020.9 |
| 20260508003316 | 0 | 73 | 9.7 | 9.7 | 0.00 | 0.00 | 0.00 | 83 | 1020.9 |
| 20260508002812 | 0 | 73 | 9.7 | 12.9 | 0.00 | 0.00 | 0.00 | 83 | 1020.8 |
| 20260508002309 | 0 | 57 | 9.7 | 9.7 | 0.00 | 0.00 | 0.00 | 85 | 1020.7 |
| 20260508001805 | 0 | 79 | 6.4 | 9.7 | 0.00 | 0.00 | 0.00 | 85 | 1020.7 |
| 20260508001301 | 0 | 43 | 8.0 | 8.0 | 0.00 | 0.00 | 0.00 | 84 | 1020.7 |
| 20260508000758 | 0 | 39 | 9.7 | 9.7 | 0.00 | 0.00 | 0.00 | 83 | 1020.4 |
| 20260508000257 | 0 | 76 | 9.7 | 9.7 | 0.00 | 0.00 | 0.00 | 82 | 1020.5 |
| 20260507235751 | 0 | 82 | 8.0 | 9.7 | 0.00 | 0.00 | 0.00 | 82 | 1020.6 |
| 20260507235249 | 0 | 43 | 8.0 | 9.7 | 0.00 | 0.00 | 0.00 | 83 | 1020.4 |
| 20260507234745 | 0 | 52 | 8.0 | 9.7 | 0.00 | 0.00 | 0.00 | 82 | 1020.4 |
| 20260507234242 | 0 | 95 | 9.7 | 9.7 | 0.00 | 0.00 | 0.00 | 82 | 1020.3 |
| 20260507233738 | 0 | 91 | 9.7 | 9.7 | 0.00 | 0.00 | 0.00 | 83 | 1020.3 |
| 20260507233237 | 0 | 76 | 9.7 | 14.5 | 0.00 | 0.00 | 0.00 | 84 | 1020.4 |
| 20260507232734 | 0 | 60 | 14.5 | 14.5 | 0.00 | 0.00 | 0.00 | 80 | 1020.2 |
| 20260507232230 | 0 | 44 | 9.7 | 9.7 | 0.00 | 0.00 | 0.00 | 79 | 1020.3 |
| 20260507231727 | 0 | 61 | 8.0 | 9.7 | 0.00 | 0.00 | 0.00 | 79 | 1020.2 |
| 20260507231224 | 0 | 84 | 3.2 | 9.7 | 0.00 | 0.00 | 0.00 | 78 | 1020.4 |
| 20260507230720 | 0 | 82 | 8.0 | 8.0 | 0.00 | 0.00 | 0.00 | 79 | 1020.1 |
| 20260507230218 | 0 | 69 | 9.7 | 11.3 | 0.00 | 0.00 | 0.00 | 77 | 1020.2 |
| 20260507225717 | 0 | 75 | 9.7 | 12.9 | 0.00 | 0.00 | 0.00 | 77 | 1020.2 |
| 20260507225214 | 0 | 80 | 9.7 | 12.9 | 0.00 | 0.00 | 0.00 | 78 | 1019.9 |
| 20260507224710 | 0 | 76 | 11.3 | 17.7 | 0.00 | 0.00 | 0.00 | 80 | 1020.0 |
| 20260507224207 | 0 | 62 | 14.5 | 16.1 | 0.00 | 0.00 | 0.00 | 80 | 1020.0 |
| 20260507223703 | 0 | 75 | 8.0 | 8.0 | 0.00 | 0.00 | 0.00 | 76 | 1019.9 |
| 20260507223200 | 1 | 59 | 12.9 | 12.9 | 0.00 | 0.00 | 0.00 | 74 | 1020.0 |
| 20260507222657 | 0 | 81 | 9.7 | 11.3 | 0.00 | 0.00 | 0.00 | 78 | 1020.0 |
| 20260507222153 | 0 | 78 | 8.0 | 11.3 | 0.00 | 0.00 | 0.00 | 76 | 1019.9 |
| 20260507221649 | 1 | 64 | 14.5 | 16.1 | 0.00 | 0.00 | 0.00 | 76 | 1019.8 |
| 20260507221146 | 1 | 71 | 14.5 | 14.5 | 0.00 | 0.00 | 0.00 | 74 | 1019.9 |
| 20260507220643 | 1 | 89 | 9.7 | 12.9 | 0.00 | 0.00 | 0.00 | 75 | 1019.7 |
| 20260507220141 | 0 | 85 | 9.7 | 9.7 | 0.00 | 0.00 | 0.00 | 79 | 1019.6 |
| 20260507215637 | 1 | 70 | 12.9 | 14.5 | 0.00 | 0.00 | 0.00 | 74 | 1019.5 |
| 20260507215135 | 1 | 74 | 11.3 | 14.5 | 0.00 | 0.00 | 0.00 | 77 | 1019.4 |
| 20260507214631 | 1 | 70 | 11.3 | 12.9 | 0.00 | 0.00 | 0.00 | 77 | 1019.5 |
| 20260507214128 | 0 | 80 | 11.3 | 14.5 | 0.00 | 0.00 | 0.00 | 79 | 1019.5 |
| 20260507213624 | 0 | 87 | 9.7 | 14.5 | 0.00 | 0.00 | 0.00 | 79 | 1019.5 |
| 20260507213122 | 1 | 69 | 12.9 | 14.5 | 0.00 | 0.00 | 0.00 | 76 | 1019.3 |
| 20260507212617 | 1 | 71 | 12.9 | 17.7 | 0.00 | 0.00 | 0.00 | 78 | 1019.4 |
| 20260507212114 | 1 | 66 | 14.5 | 14.5 | 0.00 | 0.00 | 0.00 | 76 | 1019.4 |
| 20260507211611 | 1 | 73 | 9.7 | 11.3 | 0.00 | 0.00 | 0.00 | 78 | 1019.5 |
| 20260507211107 | 1 | 86 | 9.7 | 9.7 | 0.00 | 0.00 | 0.00 | 77 | 1019.3 |
| 20260507210605 | 1 | 86 | 6.4 | 8.0 | 0.00 | 0.00 | 0.00 | 76 | 1019.3 |
| 20260507205558 | 2 | 72 | 9.7 | 11.3 | 0.00 | 0.00 | 0.00 | 74 | 1019.2 |
| 20260507205054 | 1 | 71 | 14.5 | 14.5 | 0.00 | 0.00 | 0.00 | 76 | 1019.1 |
| 20260507204550 | 2 | 66 | 11.3 | 14.5 | 0.00 | 0.00 | 0.00 | 73 | 1019.2 |
| 20260507204048 | 2 | 69 | 12.9 | 12.9 | 0.00 | 0.00 | 0.00 | 72 | 1019.1 |
| 20260507203546 | 2 | 74 | 11.3 | 12.9 | 0.00 | 0.00 | 0.00 | 72 | 1019.1 |
| 20260507203043 | 2 | 76 | 8.0 | 11.3 | 0.00 | 0.00 | 0.00 | 72 | 1018.9 |
| 20260507202538 | 2 | 66 | 9.7 | 11.3 | 0.00 | 0.00 | 0.00 | 71 | 1019.0 |
| 20260507202035 | 2 | 84 | 9.7 | 11.3 | 0.00 | 0.00 | 0.00 | 72 | 1019.0 |
| 20260507201531 | 2 | 99 | 9.7 | 11.3 | 0.00 | 0.00 | 0.00 | 74 | 1018.9 |
| 20260507201027 | 2 | 78 | 9.7 | 14.5 | 0.00 | 0.00 | 0.00 | 73 | 1018.9 |
| 20260507200522 | 2 | 87 | 8.0 | 9.7 | 0.00 | 0.00 | 0.00 | 73 | 1018.8 |
| 20260507200019 | 2 | 75 | 8.0 | 14.5 | 0.00 | 0.00 | 0.00 | 73 | 1018.7 |
| 20260507195516 | 2 | 81 | 11.3 | 12.9 | 0.00 | 0.00 | 0.00 | 74 | 1018.8 |
| 20260507195014 | 3 | 76 | 9.7 | 9.7 | 0.00 | 0.00 | 0.00 | 75 | 1018.4 |
| 20260507194510 | 3 | 73 | 9.7 | 11.3 | 0.00 | 0.00 | 0.00 | 76 | 1018.6 |
| 20260507194006 | 3 | 80 | 8.0 | 8.0 | 0.00 | 0.00 | 0.00 | 77 | 1018.8 |
| 20260507193503 | 3 | 82 | 11.3 | 14.5 | 0.00 | 0.00 | 0.00 | 77 | 1018.5 |
| 20260507193000 | 3 | 87 | 8.0 | 9.7 | 0.00 | 0.00 | 0.00 | 76 | 1018.4 |
| 20260507192455 | 3 | 94 | 9.7 | 14.5 | 0.00 | 0.00 | 0.00 | 74 | 1018.3 |
| 20260507191953 | 4 | 66 | 11.3 | 11.3 | 0.00 | 0.00 | 0.00 | 74 | 1018.4 |
| 20260507191449 | 4 | 71 | 11.3 | 14.5 | 0.00 | 0.00 | 0.00 | 74 | 1018.1 |
| 20260507190946 | 4 | 58 | 8.0 | 9.7 | 0.00 | 0.00 | 0.00 | 73 | 1018.4 |
| 20260507190443 | 5 | 56 | 9.7 | 9.7 | 0.00 | 0.00 | 0.00 | 72 | 1018.4 |
| 20260507185942 | 5 | 65 | 8.0 | 9.7 | 0.00 | 0.00 | 0.00 | 71 | 1018.2 |
| 20260507185439 | 5 | 57 | 8.0 | 9.7 | 0.00 | 0.00 | 0.00 | 71 | 1018.3 |
| 20260507184935 | 5 | 63 | 8.0 | 9.7 | 0.00 | 0.00 | 0.00 | 69 | 1018.3 |
| 20260507184434 | 5 | 33 | 6.4 | 8.0 | 0.00 | 0.00 | 0.00 | 69 | 1018.2 |
| 20260507183931 | 5 | 355 | 3.2 | 9.7 | 0.00 | 0.00 | 0.00 | 69 | 1018.1 |
| 20260507183427 | 5 | 40 | 6.4 | 9.7 | 0.00 | 0.00 | 0.00 | 69 | 1018.0 |
| 20260507182925 | 5 | 36 | 8.0 | 11.3 | 0.00 | 0.00 | 0.00 | 69 | 1018.1 |
| 20260507182421 | 6 | 34 | 8.0 | 12.9 | 0.00 | 0.00 | 0.00 | 70 | 1018.1 |
| 20260507181917 | 6 | 22 | 11.3 | 14.5 | 0.00 | 0.00 | 0.00 | 68 | 1018.0 |
| 20260507181413 | 6 | 38 | 4.8 | 8.0 | 0.00 | 0.00 | 0.00 | 70 | 1018.0 |
| 20260507180910 | 6 | 36 | 9.7 | 9.7 | 0.00 | 0.00 | 0.00 | 69 | 1018.0 |
| 20260507180407 | 6 | 350 | 6.4 | 12.9 | 0.00 | 0.00 | 0.00 | 68 | 1017.9 |
| 20260507175903 | 6 | 315 | 9.7 | 14.5 | 0.00 | 0.00 | 0.00 | 67 | 1017.9 |
| 20260507175400 | 6 | 313 | 9.7 | 17.7 | 0.00 | 0.00 | 0.00 | 68 | 1017.8 |
| 20260507174857 | 6 | 291 | 12.9 | 19.3 | 0.00 | 0.00 | 0.00 | 68 | 1017.6 |
| 20260507174354 | 6 | 279 | 14.5 | 17.7 | 0.00 | 0.00 | 0.00 | 69 | 1017.7 |
| 20260507173852 | 6 | 297 | 14.5 | 19.3 | 0.00 | 0.00 | 0.00 | 70 | 1017.7 |
| 20260507173349 | 7 | 281 | 14.5 | 16.1 | 0.00 | 0.00 | 0.00 | 69 | 1017.7 |
| 20260507172845 | 6 | 278 | 14.5 | 16.1 | 0.00 | 0.00 | 0.00 | 70 | 1017.5 |
| 20260507172342 | 6 | 274 | 16.1 | 17.7 | 0.00 | 0.00 | 0.00 | 69 | 1017.7 |
| 20260507171838 | 6 | 281 | 16.1 | 19.3 | 0.00 | 0.00 | 0.00 | 70 | 1017.6 |
| 20260507171335 | 6 | 297 | 14.5 | 19.3 | 0.00 | 0.00 | 0.00 | 70 | 1017.7 |
| 20260507170832 | 6 | 297 | 9.7 | 17.7 | 0.00 | 0.00 | 0.00 | 66 | 1017.5 |
| 20260507170328 | 6 | 291 | 9.7 | 20.9 | 0.00 | 0.00 | 0.00 | 67 | 1017.3 |
| 20260507165824 | 7 | 314 | 12.9 | 17.7 | 0.00 | 0.00 | 0.00 | 64 | 1017.4 |
| 20260507165320 | 7 | 323 | 6.4 | 6.4 | 0.00 | 0.00 | 0.00 | 59 | 1017.4 |
| 20260507164816 | 7 | 354 | 3.2 | 4.8 | 0.00 | 0.00 | 0.00 | 58 | 1017.4 |
| 20260507164314 | 7 | 322 | 1.6 | 3.2 | 0.00 | 0.00 | 0.00 | 60 | 1017.3 |
| 20260507163811 | 7 | 182 | 1.6 | 1.6 | 0.00 | 0.00 | 0.00 | 59 | 1017.5 |
| 20260507163309 | 7 | 351 | 3.2 | 6.4 | 0.00 | 0.00 | 0.00 | 57 | 1017.4 |
| 20260507162804 | 7 | 296 | 4.8 | 4.8 | 0.00 | 0.00 | 0.00 | 57 | 1017.0 |
| 20260507162300 | 7 | 285 | 6.4 | 6.4 | 0.00 | 0.00 | 0.00 | 56 | 1017.1 |
| 20260507161758 | 7 | 321 | 4.8 | 6.4 | 0.00 | 0.00 | 0.00 | 53 | 1017.2 |
| 20260507161254 | 7 | 325 | 3.2 | 4.8 | 0.00 | 0.00 | 0.00 | 53 | 1017.1 |
| 20260507160750 | 7 | 293 | 3.2 | 6.4 | 0.00 | 0.00 | 0.00 | 60 | 1017.0 |
| 20260507160246 | 6 | 318 | 3.2 | 6.4 | 0.00 | 0.00 | 0.00 | 60 | 1017.2 |
| 20260507155742 | 6 | 332 | 4.8 | 6.4 | 0.00 | 0.00 | 0.00 | 62 | 1017.2 |
| 20260507155238 | 6 | 315 | 6.4 | 8.0 | 0.00 | 0.00 | 0.00 | 61 | 1017.0 |
| 20260507154735 | 6 | 328 | 8.0 | 9.7 | 0.00 | 0.00 | 0.00 | 62 | 1017.0 |
| 20260507154233 | 6 | 311 | 8.0 | 9.7 | 0.00 | 0.00 | 0.00 | 61 | 1017.0 |
| 20260507153729 | 6 | 306 | 6.4 | 8.0 | 0.00 | 0.00 | 0.00 | 63 | 1016.9 |
| 20260507153226 | 6 | 316 | 8.0 | 8.0 | 0.00 | 0.00 | 0.00 | 63 | 1016.9 |
| 20260507152722 | 6 | 303 | 8.0 | 9.7 | 0.00 | 0.00 | 0.00 | 62 | 1017.0 |
| 20260507152219 | 7 | 320 | 8.0 | 9.7 | 0.00 | 0.00 | 0.00 | 60 | 1017.0 |
| 20260507151715 | 7 | 303 | 6.4 | 6.4 | 0.00 | 0.00 | 0.00 | 57 | 1017.1 |
| 20260507151211 | 7 | 92 | 4.8 | 8.0 | 0.00 | 0.00 | 0.00 | 58 | 1017.0 |
| 20260507150708 | 6 | 20 | 3.2 | 8.0 | 0.00 | 0.00 | 0.00 | 60 | 1016.9 |
| 20260507150205 | 6 | 22 | 3.2 | 6.4 | 0.00 | 0.00 | 0.00 | 62 | 1016.9 |
| 20260507145701 | 6 | 8 | 4.8 | 6.4 | 0.00 | 0.00 | 0.00 | 64 | 1017.2 |
| 20260507145158 | 5 | 315 | 6.4 | 9.7 | 0.00 | 0.00 | 0.00 | 66 | 1017.2 |
| 20260507144654 | 5 | 317 | 6.4 | 11.3 | 0.00 | 0.00 | 0.00 | 65 | 1017.1 |
| 20260507144153 | 6 | 292 | 14.5 | 16.1 | 0.00 | 0.00 | 0.00 | 64 | 1016.9 |
| 20260507143649 | 6 | 267 | 14.5 | 20.9 | 0.00 | 0.00 | 0.00 | 64 | 1016.9 |
| 20260507143146 | 6 | 99 | 3.2 | 14.5 | 0.00 | 0.00 | 0.00 | 65 | 1016.8 |
| 20260507142642 | 6 | 60 | 4.8 | 6.4 | 0.00 | 0.00 | 0.00 | 60 | 1016.9 |
| 20260507142139 | 6 | 320 | 4.8 | 8.0 | 0.00 | 0.00 | 0.00 | 59 | 1017.0 |
| 20260507141635 | 6 | 332 | 6.4 | 6.4 | 0.00 | 0.00 | 0.00 | 63 | 1016.8 |
| 20260507141132 | 6 | 335 | 3.2 | 6.4 | 0.00 | 0.00 | 0.00 | 62 | 1017.0 |
| 20260507140628 | 6 | 325 | 4.8 | 8.0 | 0.00 | 0.00 | 0.00 | 61 | 1016.7 |
| 20260507140126 | 6 | 283 | 6.4 | 6.4 | 0.00 | 0.00 | 0.00 | 62 | 1016.8 |
| 20260507135623 | 7 | 294 | 3.2 | 6.4 | 0.00 | 0.00 | 0.00 | 57 | 1016.6 |
| 20260507135120 | 7 | 247 | 3.2 | 6.4 | 0.00 | 0.00 | 0.00 | 61 | 1016.7 |
| 20260507134616 | 7 | 36 | 1.6 | 6.4 | 0.00 | 0.00 | 0.00 | 58 | 1016.6 |
| 20260507134112 | 6 | 274 | 3.2 | 4.8 | 0.00 | 0.00 | 0.00 | 62 | 1016.7 |
| 20260507133608 | 6 | 276 | 4.8 | 9.7 | 0.00 | 0.00 | 0.00 | 60 | 1016.5 |
| 20260507133106 | 6 | 144 | 11.3 | 14.5 | 0.00 | 0.00 | 0.00 | 60 | 1016.7 |